Tracking 28052 objects as of 24-Sep-2023
HD Live streaming from Space Station
objects crossing your sky now

TK-2

Track TK-2 now!
10-day predictions


NORAD ID: 52150
Int'l Code: 2022-031A
Perigee: 584.0 km
Apogee: 602.0 km
Inclination: 97.8 °
Period: 96.4 minutes
Semi major axis: 6964 km
RCS: Unknown
Launch date: March 29, 2022
Source: People's Republic of China (PRC)
Launch site: Taiyaun Space Center, China (TSC)
Your satellite tracking list
Your tracking list is empty




NASA's NSSDC Master Catalog

Two Line Element Set (TLE):
1 52150U 22031A   23267.54068821  .00003590  00000-0  34282-3 0  9994
2 52150  97.8308  81.4557 0012923 267.3146  92.6595 14.93869206 81133
Source of the keplerian elements: AFSPC